Date String (YYYY-MM-DD hh:mm:ss) UTC,Instrument flags,Ambient pressure (hPa),Sample flow (lpm),Bypass flow (lpm),Sample temperature (°C),Ambient temperature (°C),ASC tube jacket temperature (°C),LED temperature (°C),Box temperature (°C),Sample RH (%),Span deviation,Mass concentration (μg/m³),Mass concentration (μg/m³),Mass concentration (μg/m³)
DateTimeUTC,F1_M11,P_M11,Q1_M11,Q2_M11,T1_M11,T2_M11,T3_M11,T4_M11,T5_M11,U1_M11,ZSPAN_M11,X2_M11,X0_M11,X1_M11
2021-12-23 15:00:00,,0819.0,5.00,0.00,24.9,24.2,00.0,33.9,26.7,08.6,0000.0,0001.01,0003.45,0000.56
2021-12-23 15:01:00,,0818.9,5.01,0.00,24.9,24.2,00.0,33.9,26.7,08.6,0000.0,0000.98,0002.88,0000.55
2021-12-23 15:02:00,,0818.9,4.99,0.00,24.9,24.2,00.0,33.9,26.7,08.6,0000.0,0000.93,0002.40,0000.54
2021-12-23 15:03:00,,0819.0,5.02,0.00,24.9,24.2,00.0,33.9,26.7,08.6,0000.0,0000.97,0002.38,0000.55
2021-12-23 15:04:00,,0818.9,4.98,0.00,24.9,24.2,00.0,33.9,26.7,08.6,0000.0,0001.01,0002.48,0000.56
2021-12-23 15:05:00,,0818.9,5.01,0.00,24.9,24.2,00.0,33.9,26.7,08.6,0000.0,0001.01,0002.52,0000.56
2021-12-23 15:06:00,,0818.9,5.00,0.00,24.9,24.2,00.0,33.9,26.6,08.6,0000.0,0000.97,0002.38,0000.56
2021-12-23 15:07:00,,0818.8,5.00,0.00,24.9,24.2,00.0,33.9,26.7,08.8,0000.0,0000.93,0002.06,0000.56
2021-12-23 15:08:00,,0818.9,5.00,0.00,24.9,24.2,00.0,33.9,26.7,08.7,0000.0,0000.96,0001.81,0000.56
2021-12-23 15:09:00,,0818.9,4.98,0.00,24.9,24.1,00.0,33.9,26.7,08.6,0000.0,0001.01,0001.95,0000.57
2021-12-23 15:10:00,,0818.9,5.02,0.00,24.9,24.1,00.0,33.9,26.6,08.6,0000.0,0001.02,0001.95,0000.58
2021-12-23 15:11:00,,0818.9,4.98,0.00,24.9,24.1,00.0,33.9,26.7,08.7,0000.0,0001.01,0001.91,0000.58
2021-12-23 15:12:00,,0818.9,4.99,0.00,24.9,24.1,00.0,33.9,26.6,08.7,0000.0,0000.98,0001.85,0000.58
2021-12-23 15:13:00,,0818.9,5.01,0.00,24.9,24.2,00.0,33.9,26.7,08.6,0000.0,0000.99,0001.94,0000.58
2021-12-23 15:14:00,,0819.0,5.00,0.00,24.9,24.2,00.0,33.9,26.7,08.6,0000.0,0000.97,0003.06,0000.58
2021-12-23 15:15:00,,0819.0,4.99,0.00,24.9,24.2,00.0,33.9,26.7,08.6,0000.0,0000.94,0003.08,0000.58
2021-12-23 15:16:00,,0818.9,5.01,0.00,25.0,24.2,00.0,33.9,26.7,08.5,0000.0,0000.95,0003.35,0000.58
2021-12-23 15:17:00,,0818.9,4.99,0.00,25.0,24.2,00.0,33.9,26.7,08.5,0000.0,0000.98,0003.56,0000.58
2021-12-23 15:18:00,,0818.9,5.01,0.00,25.0,24.2,00.0,33.9,26.7,08.6,0000.0,0000.99,0003.70,0000.59
2021-12-23 15:19:00,,0819.0,5.00,0.00,25.0,24.2,00.0,33.9,26.7,08.7,0000.0,0001.01,0003.74,0000.60
2021-12-23 15:20:00,,0819.0,4.99,0.00,25.0,24.3,00.0,33.9,26.8,08.8,0000.0,0000.99,0004.23,0000.59
2021-12-23 15:21:00,,0818.9,5.02,0.00,25.0,24.2,00.0,33.9,26.8,09.0,0000.0,0000.99,0006.05,0000.56
2021-12-23 15:22:00,,0818.9,4.99,0.00,25.0,24.2,00.0,33.9,26.7,09.1,0000.0,0000.97,0006.36,0000.54
2021-12-23 15:23:00,,0818.9,5.00,0.00,25.0,24.2,00.0,33.9,26.7,09.5,0000.0,0000.94,0006.30,0000.52
2021-12-23 15:24:00,,0818.9,5.00,0.00,25.0,24.2,00.0,33.9,26.7,09.7,0000.0,0000.91,0006.22,0000.50
2021-12-23 15:25:00,,0819.0,5.01,0.00,25.0,24.2,00.0,33.9,26.7,09.1,0000.0,0000.91,0005.87,0000.48
2021-12-23 15:26:00,,0819.1,4.99,0.00,25.0,24.2,00.0,33.9,26.6,09.3,0000.0,0000.92,0005.76,0000.47
2021-12-23 15:27:00,,0819.2,5.02,0.00,25.0,24.2,00.0,33.9,26.7,09.7,0000.0,0000.87,0005.41,0000.45
2021-12-23 15:28:00,,0819.3,4.99,0.00,25.0,24.2,00.0,33.9,26.7,09.0,0000.0,0000.80,0005.30,0000.44
2021-12-23 15:29:00,,0819.3,5.01,0.00,25.0,24.2,00.0,33.9,26.7,08.8,0000.0,0000.79,0006.18,0000.43
2021-12-23 15:30:00,,0819.3,5.00,0.00,25.0,24.2,00.0,33.9,26.7,09.0,0000.0,0000.74,0006.40,0000.42
2021-12-23 15:31:00,,0819.2,5.00,0.00,25.0,24.2,00.0,33.9,26.7,09.0,0000.0,0000.70,0006.56,0000.41
2021-12-23 15:32:00,,0819.3,5.00,0.00,25.0,24.2,00.0,33.9,26.7,09.1,0000.0,0000.66,0004.80,0000.42
2021-12-23 15:33:00,,0819.3,5.00,0.00,25.0,24.2,00.0,33.9,26.7,09.7,0000.0,0000.64,0004.30,0000.42
2021-12-23 15:34:00,,0819.3,5.01,0.00,25.0,24.3,00.0,33.9,26.7,09.8,0000.0,0000.69,0004.36,0000.43
2021-12-23 15:35:00,,0819.3,5.00,0.00,25.0,24.3,00.0,33.9,26.8,10.1,0000.0,0000.69,0005.21,0000.43
2021-12-23 15:36:00,,0819.3,5.00,0.00,25.0,24.3,00.0,34.0,26.8,10.3,0000.0,0000.67,0004.85,0000.42
2021-12-23 15:37:00,,0819.3,5.00,0.00,25.1,24.3,00.0,34.0,26.8,10.9,0000.0,0000.65,0004.73,0000.41
2021-12-23 15:38:00,,0819.4,4.98,0.00,25.1,24.3,00.0,34.0,26.8,11.0,0000.0,0000.61,0004.69,0000.39
2021-12-23 15:39:00,,0819.5,5.02,0.00,25.1,24.3,00.0,34.0,26.8,11.1,0000.0,0000.61,0004.37,0000.37
2021-12-23 15:40:00,,0819.4,4.98,0.00,25.1,24.2,00.0,34.0,26.8,11.1,0000.0,0000.58,0003.33,0000.35
2021-12-23 15:41:00,,0819.4,4.98,0.00,25.1,24.2,00.0,34.0,26.8,11.2,0000.0,0000.58,0003.15,0000.34
2021-12-23 15:42:00,,0819.4,5.01,0.00,25.1,24.2,00.0,34.0,26.8,11.2,0000.0,0000.53,0002.27,0000.32
2021-12-23 15:43:00,,0819.5,5.00,0.00,25.1,24.2,00.0,34.0,26.7,11.2,0000.0,0000.51,0002.22,0000.31
2021-12-23 15:44:00,,0819.5,4.99,0.00,25.1,24.2,00.0,34.0,26.8,11.2,0000.0,0000.50,0002.12,0000.31
2021-12-23 15:45:00,,0819.5,5.02,0.00,25.1,24.2,00.0,34.0,26.8,11.3,0000.0,0000.46,0002.04,0000.30
2021-12-23 15:46:00,,0819.5,5.00,0.00,25.1,24.2,00.0,34.0,26.8,11.3,0000.0,0000.46,0001.29,0000.30
2021-12-23 15:47:00,,0819.5,4.99,0.00,25.1,24.1,00.0,34.0,26.8,11.2,0000.0,0000.44,0000.82,0000.30
2021-12-23 15:48:00,,0819.5,5.00,0.00,25.1,24.1,00.0,34.1,26.8,11.2,0000.0,0000.41,0000.67,0000.30
2021-12-23 15:49:00,,0819.5,5.00,0.00,25.1,24.1,00.0,34.1,26.8,11.2,0000.0,0000.41,0000.66,0000.31
2021-12-23 15:50:00,,0819.5,5.01,0.00,25.1,24.2,00.0,34.1,26.8,11.2,0000.0,0000.40,0000.65,0000.31
2021-12-23 15:51:00,,0819.5,4.99,0.00,25.1,24.2,00.0,34.1,26.8,11.2,0000.0,0000.40,0000.65,0000.31
2021-12-23 15:52:00,,0819.5,5.01,0.00,25.2,24.2,00.0,34.1,26.8,11.3,0000.0,0000.39,0000.55,0000.31
2021-12-23 15:53:00,,0819.5,4.98,0.00,25.2,24.2,00.0,34.1,26.8,11.4,0000.0,0000.40,0000.58,0000.31
2021-12-23 15:54:00,,0819.5,5.00,0.00,25.2,24.2,00.0,34.1,26.9,11.4,0000.0,0000.40,0000.56,0000.31
2021-12-23 15:55:00,,0819.5,5.00,0.00,25.2,24.3,00.0,34.1,26.9,11.4,0000.0,0000.40,0000.57,0000.31
2021-12-23 15:56:00,,0819.5,5.00,0.00,25.2,24.3,00.0,34.1,27.0,11.4,0000.0,0000.40,0000.57,0000.31
2021-12-23 15:57:00,,0819.5,5.01,0.00,25.2,24.4,00.0,34.1,27.0,11.3,0000.0,0000.38,0000.52,0000.30
2021-12-23 15:58:00,,0819.5,5.01,0.00,25.3,24.4,00.0,34.2,27.1,11.4,0000.0,0000.37,0000.51,0000.30
2021-12-23 15:59:00,,0819.5,5.00,0.00,25.3,24.5,00.0,34.2,27.1,11.4,0000.0,0000.39,0000.54,0000.30
